User: anonymous   Login
Location: Ballingbuur
(53.0000°N, 5.7667°E)
Time: 13:01:46
(UTC+00:00)
Language:

ARGOS Delta rocket - Orbit

View from above orbital plane
View from above orbital plane
View from above satellite
View from above satellite

Ground track
Ground track

The orbit data is extracted from the following two-line orbital elements,

1 25637U 99008D   21061.68953483  .00000051  00000-0  20817-4 0  9993
2 25637  96.4701  23.6358 0140837 290.9177 244.2647 14.46707293161153
Epoch (UTC): 02 March 2021 16:32:55
Eccentricity: 0.0140837
inclination: 96.4701°
perigee height: 636 km
apogee height: 836 km
right ascension of ascending node: 23.6358°
argument of perigee: 290.9177°
revolutions per day: 14.46707293
mean anomaly at epoch: 244.2647°
orbit number at epoch: 16115

The dashed part of the orbit path shows where the satellite is in the earth's shadow,  

DLR